NOAA 16 DEB, 41280

Orbit data source: Space-Track

NOAA 16 DEB, 41280 is space debris in SSO originally from a launch on Thu, 21 Sep 2000 UTC launched from the Air Force Western Test Range (AFWTR). Debris objects in space refer to the collection of defunct objects orbiting the Earth. Examples of debris include non-operational satellites, rocket bodies, and fragments generated from explosions, collisions, or faulty payload assembly.

Loading next visibility...
Identifier
41280, 2000-055GG
Orbit
SSO
Country
Flag of USUS
Related business
Manufacturer
Unknown
Mission
Spacecraft
Bus & Motor
Unknown
Mass
Unknown
Launch date (UTC)
2000-09-21 (25 years ago)
Launch vehicle
Unknown
Launch site
Air Force Western Test Range (AFWTR)
Object type
Payload
Rocket body
Debris
Shape & HBR
Unknown
Radar Cross Section
Small (<0.1 m²)

Expand to show TLE details & history
Last TLE update: 17 hours ago

TLE from 17 hours ago
0 NOAA 16 DEB
1 41280U 00055GG  25259.44677104  .00003274  00000-0  15743-2 0  9999
2 41280  98.6649 262.8258 0027092 265.9863  93.8216 14.19310510500392
Epoch: 2025-09-16T10:43Z
TLE epoch observation values (Epoch: 2025-09-16T10:43:21.017Z)
Latitude
-0.00007°
Longitude
106.35129°
Altitude
831.954 km
Speed
7.436 km/s
True Right ascension
17h 31m 18s
True Declination
0° 00' 00"
Sunlit
Object was in daylight at epoch
Visualization orbit readout
Latitude
Unknown
Longitude
Unknown
Altitude
Unknown
Speed
Unknown
Apparent Right ascension
Unknown
Apparent Declination
Unknown
Sunlit
N/A
Visualization observer readout
Local Sidereal Time
20:48:03
Azimuth
Unknown
Elevation
Unknown
Doppler factor
Unknown
Orbital elements
Apogee altitude
844.357 km
Perigee altitude
805.329 km
Semi-major axis
7,202.98 km
Eccentricity
0.00271
Inclination
98.6649°
RAAN
262.8258°
Arg. of periapsis
265.9863°
True anomaly
94.13129°
Mean anomaly
93.8216°
Eccentric anomaly
93.97645°
Mean motion
3.55038 °/min
Orbital period
101.4 mins
BSTAR
0.0015743
Loading maneuver chart data...
Computing Atmospheric mass density...
Loading historical data...
Loading historical data...
Loading historical data...
Loading historical data...
Loading historical data...
Loading historical data...
Loading historical data...

Documentation

Showing up to 5 results
|